Weather History for LEMG - April, 2013

Change the Weather History Date:

Monday, April 22, 2013

  Actual Average Record
Temperature  
Mean Temperature 64 °F -  
Max Temperature 70 °F 73 °F 86 °F (2005)
Min Temperature 58 °F 55 °F 48 °F (2001)
Degree Days  
Heating Degree Days 1    
Growing Degree Days 14 (Base 50)    
Moisture  
Dew Point 55 °F    
Average Humidity 77    
Maximum Humidity 94    
Minimum Humidity 52    
Precipitation  
Precipitation 0.04 in 0.04 in - ()
Sea Level Pressure  
Sea Level Pressure 30.00 in    
Wind  
Wind Speed 4 mph ()    
Max Wind Speed 12 mph    
Max Gust Speed 13 mph    
Visibility 5.2 miles    
Events      
Averages and records for this station are not official NWS values.
T = Trace of Precipitation, MM = Missing Value Source: Averaged Metar Reports

Daily Weather History Graph

Daily Weather History Graph

Search for Another Location

Airport or City:

Trip Planner

Search our weather history database for the weather conditions in past years. The results will help you decide how hot, cold, wet, or windy it might be!

Date:

Astronomy

Apr. 22, 2013 Rise Set
Actual Time 7:34 AM CEST 8:58 PM CEST
Civil Twilight 7:07 AM CEST 9:25 PM CEST
Nautical Twilight 6:35 AM CEST 9:58 PM CEST
Astronomical Twilight 6:01 AM CEST 10:32 PM CEST
Moon 5:37 PM CEST (4/22) 5:16 AM CEST (4/22)
Length of Visible Light 14h 17m
Length of Day
13h 23m
Waxing Gibbous, 86% of the Moon is Illuminated
Apr 22
Waxing Gibbous
Apr 25
Full
May 2
Last Quarter
May 10
New
May 18
First Quarter

Hourly Weather History & Observations

Time (CEST) Temp. Dew Point Humidity Pressure Visibility Wind Dir Wind Speed Gust Speed Precip Events Conditions
12:00 AM 59.0 °F 55.4 °F 88% 30.04 in 6.2 mi Calm Calm - N/A   Partly Cloudy
12:30 AM 59.0 °F 57.2 °F 94% 30.04 in 5.0 mi ESE 2.3 mph - N/A   Partly Cloudy
1:00 AM 60.8 °F 57.2 °F 88% 30.04 in 5.0 mi Variable 1.2 mph - N/A   Scattered Clouds
1:30 AM 60.8 °F 57.2 °F 88% 30.04 in 5.0 mi East 2.3 mph - N/A   Scattered Clouds
2:00 AM 61 °F 56 °F 80% 30.04 in 5 mi East 1.2 mph - -   Mist
2:00 AM 60.8 °F 57.2 °F 88% 30.04 in 5.0 mi East 1.2 mph - N/A   Scattered Clouds
2:30 AM 60.8 °F 57.2 °F 88% 30.04 in 5.0 mi Variable 2.3 mph - N/A   Scattered Clouds
3:00 AM 59.0 °F 55.4 °F 88% 30.01 in 5.0 mi WNW 3.5 mph - N/A   Scattered Clouds
3:30 AM 59.0 °F 53.6 °F 82% 30.01 in 5.0 mi WNW 3.5 mph - N/A   Scattered Clouds
4:00 AM 59.0 °F 53.6 °F 82% 30.01 in 5.0 mi WNW 5.8 mph - N/A   Mostly Cloudy
4:30 AM 59.0 °F 53.6 °F 82% 30.01 in 5.0 mi WNW 2.3 mph - N/A   Mostly Cloudy
5:00 AM 57.2 °F 53.6 °F 88% 30.01 in 5.0 mi WNW 2.3 mph - N/A   Mostly Cloudy
5:30 AM 57.2 °F 53.6 °F 88% 29.98 in 5.0 mi WNW 1.2 mph - N/A   Mostly Cloudy
6:00 AM 57.2 °F 51.8 °F 82% 29.98 in 5.0 mi Variable 1.2 mph - N/A   Mostly Cloudy
6:30 AM 57.2 °F 53.6 °F 88% 29.98 in 5.0 mi WNW 3.5 mph - N/A   Mostly Cloudy
7:00 AM 57.2 °F 53.6 °F 88% 29.98 in 5.0 mi Variable 2.3 mph - N/A   Mostly Cloudy
7:30 AM 59.0 °F 53.6 °F 82% 29.98 in 3.7 mi Calm Calm - N/A   Mostly Cloudy
8:00 AM 60 °F 54 °F 74% 30.00 in 4 mi WNW 2.3 mph - -   Mist
8:00 AM 59.0 °F 53.6 °F 82% 29.98 in 3.7 mi WNW 2.3 mph - N/A   Mostly Cloudy
8:30 AM 59.0 °F 53.6 °F 82% 29.98 in 2.5 mi WNW 3.5 mph - N/A   Mostly Cloudy
9:00 AM 59.0 °F 53.6 °F 82% 30.01 in 2.5 mi Variable 2.3 mph - N/A   Mostly Cloudy
9:30 AM 59.0 °F 53.6 °F 82% 30.01 in 2.5 mi WNW 4.6 mph - N/A   Mostly Cloudy
10:00 AM 59.0 °F 55.4 °F 88% 30.01 in 2.5 mi WNW 3.5 mph - N/A   Mostly Cloudy
10:30 AM 60.8 °F 55.4 °F 82% 30.01 in 2.5 mi WNW 4.6 mph - N/A   Mostly Cloudy
11:00 AM 60.8 °F 55.4 °F 82% 30.01 in 2.5 mi WNW 6.9 mph - N/A   Overcast
11:30 AM 62.6 °F 55.4 °F 77% 30.01 in 2.5 mi Variable 2.3 mph - N/A   Overcast
12:00 PM 62.6 °F 55.4 °F 77% 30.01 in 2.5 mi Calm Calm - N/A   Overcast
12:30 PM 64.4 °F 55.4 °F 73% 30.01 in 3.1 mi NNW 1.2 mph - N/A   Scattered Clouds
1:00 PM 64.4 °F 53.6 °F 68% 30.01 in 5.0 mi Variable 1.2 mph 12.7 mph N/A   Scattered Clouds
1:30 PM 68.0 °F 53.6 °F 60% 30.01 in 6.2 mi ESE 8.1 mph - N/A   Scattered Clouds
2:00 PM 68 °F 54 °F 52% 30.01 in 9 mi SE 8.1 mph - -   Partly Cloudy
2:00 PM 66.2 °F 53.6 °F 64% 30.01 in 6.2 mi SE 8.1 mph - N/A   Scattered Clouds
2:30 PM 66.2 °F 53.6 °F 64% 29.98 in 6.2 mi SE 9.2 mph - N/A   Scattered Clouds
3:00 PM 66.2 °F 57.2 °F 73% 29.98 in 6.2 mi SE 10.4 mph - N/A   Scattered Clouds
3:30 PM 66.2 °F 57.2 °F 73% 29.98 in 6.2 mi SE 10.4 mph - N/A   Scattered Clouds
4:00 PM 66.2 °F 55.4 °F 68% 29.98 in 6.2 mi SE 10.4 mph - N/A   Partly Cloudy
4:30 PM 66.2 °F 53.6 °F 64% 29.98 in 6.2 mi SSE 11.5 mph - N/A   Partly Cloudy
5:00 PM 66.2 °F 55.4 °F 68% 29.95 in 6.2 mi SE 10.4 mph - N/A   Partly Cloudy
5:30 PM 66.2 °F 53.6 °F 64% 29.95 in 6.2 mi SE 10.4 mph - N/A   Partly Cloudy
6:00 PM 66.2 °F 53.6 °F 64% 29.95 in 6.2 mi SE 10.4 mph - N/A   Partly Cloudy
6:30 PM 64.4 °F 53.6 °F 68% 29.95 in 6.2 mi SE 10.4 mph - N/A   Partly Cloudy
7:00 PM 64.4 °F 55.4 °F 73% 29.95 in 6.2 mi SE 10.4 mph - N/A   Partly Cloudy
7:30 PM 64.4 °F 55.4 °F 73% 29.95 in 6.2 mi SE 9.2 mph - N/A   Partly Cloudy
8:00 PM 64 °F 55 °F 64% 29.97 in 12 mi SE 8.1 mph - -   Scattered Clouds
8:00 PM 62.6 °F 55.4 °F 77% 29.95 in 6.2 mi SE 8.1 mph - N/A   Scattered Clouds
8:30 PM 62.6 °F 55.4 °F 77% 29.95 in 6.2 mi SE 6.9 mph - N/A   Partly Cloudy
9:00 PM 62.6 °F 53.6 °F 72% 29.98 in 6.2 mi ESE 9.2 mph - N/A   Scattered Clouds
9:30 PM 62.6 °F 51.8 °F 68% 29.98 in 6.2 mi SE 6.9 mph - N/A   Mostly Cloudy
10:00 PM 62.6 °F 53.6 °F 72% 30.01 in 6.2 mi SE 6.9 mph - N/A   Mostly Cloudy
10:30 PM 62.6 °F 53.6 °F 72% 30.01 in 6.2 mi ESE 5.8 mph - N/A   Scattered Clouds
11:00 PM 62.6 °F 55.4 °F 77% 30.01 in 6.2 mi ESE 6.9 mph - N/A   Mostly Cloudy
11:30 PM 62.6 °F 55.4 °F 77% 30.04 in 6.2 mi ESE 9.2 mph - N/A   Mostly Cloudy